Lapse_Rate
6.9 6.5 6.7 6.7 6.8 7.3 7.2 7.1 6.9 6.9 6.7 6.9 6.6 6.5 6.3 6.2 5.9 5.7 5.9 5.6 5.7 5.6 5.5 5.5 5.7 5.8 6.1 6.3 6.1 6.1 6.0 6.0
7.1 7.5 7.4 7.2 7.3 7.2 7.3 7.1 7.1 7.1 6.9 6.8 6.6 6.5 6.3 6.3 6.4 6.1 6.2 6.0 5.9 5.8 6.0 5.8 5.7 5.8 5.8 6.1 6.3 6.2 6.1 6.2
7.6 7.5 7.4 7.3 7.4 7.4 7.3 7.2 7.2 7.1 7.0 7.0 6.9 6.8 6.7 6.6 6.2 6.2 5.9 5.7 5.6 5.5 5.6 5.7 5.7 5.7 5.9 6.0 6.0 6.0 6.2 6.3
7.2 7.2 7.1 7.2 7.3 7.2 7.2 7.2 7.1 7.1 7.0 6.9 6.9 6.7 6.5 6.4 6.0 5.9 5.8 5.7 5.7 5.8 5.8 5.9 6.2 6.3 6.1 6.2 6.2 6.3 6.3 6.5
6.8 7.0 7.0 7.1 7.1 7.1 7.1 7.0 6.9 6.9 6.9 6.6 6.6 6.5 6.3 6.3 5.9 6.1 6.1 6.2 6.5 6.4 6.3 6.2 6.4 6.4 6.2 6.4 6.6 6.7 6.6 6.7
6.8 6.8 6.9 6.9 7.0 6.9 6.9 6.8 6.6 6.5 6.4 6.4 6.3 6.2 6.2 6.1 6.3 6.2 6.5 6.7 6.4 6.3 6.3 6.4 6.5 6.6 6.6 6.6 6.6 6.5 6.7 6.8
6.7 6.8 6.8 6.8 6.8 6.7 6.6 6.5 6.3 6.2 6.2 6.2 6.3 6.4 6.4 6.3 6.5 6.6 6.3 6.2 6.3 6.5 6.5 6.5 6.5 6.4 6.5 6.7 6.8 6.7 6.7 6.5
6.5 6.6 6.6 6.6 6.8 6.5 6.2 5.9 5.9 5.7 5.9 6.1 6.3 6.2 6.2 6.1 6.0 6.1 6.2 6.2 6.4 6.5 6.6 6.8 6.8 6.7 6.7 6.7 6.6 6.4 6.2 6.0
6.4 6.4 6.6 6.7 6.3 5.9 6.1 6.1 6.0 5.9 5.9 5.9 6.1 6.1 6.1 6.2 6.0 5.9 6.1 6.5 6.7 6.8 6.8 6.7 6.6 6.6 6.3 6.0 5.7 5.5 5.5 5.5
6.2 6.4 6.4 6.2 5.9 5.7 5.6 5.5 5.6 5.9 6.1 6.1 6.3 6.3 6.2 6.2 6.5 6.7 6.7 6.8 6.8 6.7 6.4 6.3 6.1 6.0 6.0 5.8 5.8 5.9 6.2 6.4
5.6 5.9 5.9 5.9 5.8 5.8 5.8 5.8 5.9 5.9 5.8 5.7 5.9 6.1 6.2 6.2 6.3 6.5 6.7 6.6 6.5 6.1 5.9 5.9 5.6 5.7 5.9 6.2 6.5 6.7 6.8 7.0
5.4 5.3 5.2 5.0 4.6 4.7 5.2 5.4 5.6 5.4 5.3 5.4 5.6 5.7 6.0 6.2 6.4 6.6 6.3 6.2 6.2 5.8 5.7 5.6 5.9 6.4 6.8 7.0 7.2 7.4 7.6 7.5
5.3 5.0 4.9 4.8 4.6 5.0 5.4 5.3 5.0 5.0 5.1 5.2 5.4 5.7 6.2 6.5 6.4 6.5 6.4 6.0 5.8 6.0 5.9 6.0 6.4 6.7 7.1 7.3 7.4 7.3 7.1 6.8
5.2 5.1 5.2 5.0 4.7 5.1 5.1 5.0 5.1 5.0 5.2 5.8 6.4 6.7 6.6 6.5 6.7 6.5 6.1 5.9 5.8 5.8 6.0 6.6 6.8 7.0 6.8 6.7 6.7 6.3 6.5 6.6
5.2 5.2 5.2 5.0 4.8 4.6 4.9 5.0 5.1 5.3 5.9 6.4 6.5 6.8 6.7 6.4 6.3 6.1 5.8 5.6 6.0 6.4 6.9 7.0 6.7 6.6 6.5 5.9 6.1 6.4 6.5 6.4
5.5 5.1 5.2 4.6 4.5 4.5 4.8 4.9 5.3 5.9 6.5 6.5 6.5 6.5 6.5 6.5 6.2 5.9 5.9 6.2 6.3 6.6 6.6 6.6 6.4 6.3 5.8 6.3 6.4 6.3 6.3 6.4
5.2 5.0 4.5 4.8 4.4 4.3 5.0 5.2 6.2 6.5 6.6 6.4 6.3 6.3 6.3 6.3 6.2 5.9 5.8 6.0 6.2 6.4 6.5 6.5 6.0 5.8 5.8 6.4 6.3 6.2 6.3 6.3
4.9 4.5 4.7 4.4 4.5 4.6 5.5 6.0 6.0 6.1 6.2 6.2 6.6 6.5 6.5 6.5 6.3 6.1 5.9 6.0 6.5 6.5 6.3 5.9 5.8 6.0 6.1 6.4 6.2 6.4 6.4 6.5
5.1 4.8 5.0 5.1 5.2 5.7 5.8 5.8 6.2 6.3 5.9 5.9 6.6 6.7 6.8 6.8 6.0 5.8 5.9 6.5 6.5 6.3 6.3 6.3 6.3 6.1 6.2 6.5 6.6 6.8 7.0 7.0
Wind_Speed
9 4 2 3 7 6 6 5 3 2 3 2 4 4 5 4 5 6 8 11 9 10 12 13 14 9 9 9 11 11 11 11
13 8 6 3 3 1 5 3 7 4 3 4 4 4 5 5 6 8 7 7 11 13 11 11 13 10 11 11 11 13 11 11
12 12 13 11 9 8 7 6 6 5 3 4 2 3 4 4 4 8 10 8 12 14 12 10 11 10 11 11 12 11 11 11
12 13 13 12 12 10 10 8 7 7 6 3 4 4 4 6 6 8 9 12 15 13 14 12 11 11 10 11 11 14 12 12
11 11 11 11 10 8 8 6 6 6 7 5 6 7 8 8 9 9 9 15 15 16 17 15 11 9 12 11 11 11 12 13
10 10 10 9 8 7 6 6 5 6 7 7 7 8 8 8 8 10 12 10 16 17 17 15 11 10 11 13 12 12 11 11
9 7 6 7 6 6 5 6 7 6 6 7 8 9 9 9 9 9 9 10 11 16 19 16 15 12 10 10 9 10 8 9
4 5 5 4 5 6 7 9 10 9 8 9 9 9 11 11 12 10 13 11 12 13 13 12 10 11 8 7 7 5 6 6
2 3 5 7 7 8 8 11 13 13 12 11 10 12 9 9 11 11 10 11 12 13 10 11 11 13 9 6 2 3 3 2
5 6 6 8 9 10 10 12 13 13 13 11 11 11 11 11 13 13 11 13 11 11 13 10 10 10 10 9 7 8 5 5
7 8 8 8 9 10 9 9 10 12 13 11 11 12 13 13 12 14 14 11 8 8 7 6 7 7 6 5 5 5 5 6
8 8 8 8 8 9 10 10 11 12 12 13 13 12 13 11 12 11 12 6 6 6 7 6 6 8 7 7 8 9 9 9
6 7 8 9 11 9 10 10 12 13 13 13 13 13 13 11 10 8 9 9 8 7 8 10 8 10 9 9 10 10 11 12
10 9 8 9 9 8 10 12 12 13 13 12 12 13 12 9 9 10 7 10 11 11 9 10 12 12 12 11 12 12 13 15
9 9 11 12 9 8 11 11 11 11 12 13 12 12 10 9 6 8 12 9 10 11 11 11 12 12 12 12 10 12 14 14
13 11 11 11 9 10 11 12 12 11 11 12 10 7 8 5 7 7 8 10 10 12 13 13 12 11 8 7 8 12 15 16
11 10 11 10 10 11 12 12 11 10 12 11 9 7 7 8 9 9 10 11 12 13 13 13 13 10 9 7 8 11 15 16
9 9 11 11 10 11 12 12 12 10 10 10 8 9 9 9 10 11 12 12 13 13 13 13 12 14 6 6 10 11 14 15
7 10 13 10 12 13 12 13 13 12 11 9 9 8 9 10 10 11 12 12 12 12 12 12 13 11 8 10 13 14 14 16
Wind_Direction
162 152 238 336 13 349 317 286 177 237 302 231 252 248 265 269 293 325 347 322 323 311 299 293 291 287 283 283 288 285 283 284
60 51 51 79 54 43 57 107 43 322 297 325 318 314 347 309 318 5 318 317 319 308 295 301 300 292 295 295 284 278 276 275
88 82 73 67 66 62 68 71 45 21 41 360 346 313 313 310 265 345 316 329 305 305 311 303 302 298 293 289 285 282 278 274
82 74 67 67 63 63 69 68 61 46 355 19 346 303 296 308 314 301 307 313 304 305 307 310 307 302 295 294 290 286 284 278
77 78 76 74 69 65 70 52 45 41 17 1 346 311 305 315 296 322 323 309 313 317 314 313 306 306 296 292 289 300 299 289
83 85 86 73 62 52 37 19 29 21 353 343 329 324 321 309 315 325 312 316 324 319 317 320 316 304 302 306 301 291 295 296
85 77 60 67 56 33 9 349 341 349 337 332 329 323 321 318 321 317 327 324 321 324 324 319 313 299 302 319 354 359 344 324
60 42 14 28 3 355 339 340 332 335 329 324 327 319 318 318 328 331 328 325 323 318 322 314 316 337 349 339 323 318 338 333
13 360 350 349 347 341 330 329 330 334 332 330 331 329 328 328 329 324 318 317 321 323 323 352 4 30 14 359 12 342 307 284
344 346 5 345 340 338 342 336 330 331 325 324 331 327 320 313 327 325 322 324 320 0 29 42 37 21 11 8 347 335 290 276
339 335 342 344 336 328 319 309 317 324 334 335 319 319 317 325 324 319 325 333 17 9 37 21 1 351 330 315 293 302 313 317
316 317 313 303 319 322 330 331 331 326 328 324 319 321 316 317 315 325 331 347 348 332 320 320 308 288 294 289 281 278 277 275
305 299 314 334 328 334 327 329 327 337 328 328 324 317 319 323 349 343 327 311 290 302 286 290 304 306 302 298 284 297 297 294
319 335 322 316 323 324 330 335 336 330 324 322 322 323 343 330 324 307 308 302 311 309 322 321 311 312 307 303 297 305 312 311
305 320 314 327 321 333 330 326 323 321 323 319 322 348 334 338 347 354 317 317 312 302 294 295 304 311 305 295 312 320 310 301
339 337 329 312 332 324 318 322 318 318 312 317 338 346 310 294 285 285 302 298 314 316 312 310 312 310 319 342 322 315 308 304
345 337 321 317 315 316 318 310 311 307 317 316 344 319 313 309 305 308 318 321 319 318 313 312 309 305 82 40 348 315 305 300
341 324 310 297 308 309 305 309 304 311 302 315 312 300 320 322 317 316 310 315 318 314 311 313 316 313 70 4 345 318 305 294
311 290 280 305 306 296 308 310 309 303 307 320 324 318 301 298 305 309 324 317 316 313 314 325 319 318 56 2 342 311 303 302